Location: Calvera
(42.3882°N, 0.6137°E)
Time: 13:49:05
(UTC+00:00)

Cosmos 2026 Rocket - Pass Details

Date: 28 October 2020
Orbit: 939 x 1002 km, 82.9° (Epoch: 24 November)

Event Time Altitude Azimuth Distance (km) Brightness Sun altitude
Rises 05:37:57 0° 206° (SSW) 3,705 6.9 -9.5°
Reaches altitude 10° 05:40:36 10° 213° (SSW) 2,763 6.1 -9.0°
Maximum altitude 05:46:37 44° 284° (WNW) 1,365 4.4 -7.9°
Drops below altitude 10° 05:52:41 10° 355° (N) 2,778 6.2 -6.9°
Sets 05:55:22 0° 2° (N) 3,726 6.9 -6.4°
